TimeEST,TemperatureF,Dew PointF,Humidity,Sea Level PressureIn,VisibilityMPH,Wind Direction,Wind SpeedMPH,Gust SpeedMPH,PrecipitationIn,Events,Conditions,WindDirDegrees,DateUTC
12:55 AM,30.6,24.6,79,30.34,10.0,NNE,4.6,-,N/A,,Clear,30,2012-11-15 05:55:00
1:55 AM,31.5,25.2,78,30.32,10.0,NNE,5.8,-,N/A,,Clear,20,2012-11-15 06:55:00
2:55 AM,30.0,25.3,83,30.33,10.0,North,4.6,-,N/A,,Clear,350,2012-11-15 07:55:00
3:55 AM,27.7,24.3,87,30.32,10.0,Calm,Calm,-,N/A,,Clear,0,2012-11-15 08:55:00
4:55 AM,26.2,22.8,87,30.33,10.0,North,3.5,-,N/A,,Clear,10,2012-11-15 09:55:00
5:55 AM,27.1,24.4,90,30.35,10.0,NNE,4.6,-,N/A,,Clear,20,2012-11-15 10:55:00
6:55 AM,26.8,23.5,88,30.36,10.0,NNE,3.5,-,N/A,,Clear,20,2012-11-15 11:55:00
7:55 AM,28.0,25.2,89,30.37,10.0,Calm,Calm,-,N/A,,Clear,0,2012-11-15 12:55:00
8:55 AM,33.3,28.2,82,30.38,10.0,NE,3.5,-,N/A,,Clear,50,2012-11-15 13:55:00
9:55 AM,37.2,28.2,70,30.38,10.0,East,3.5,-,N/A,,Clear,80,2012-11-15 14:55:00
10:55 AM,41.0,28.4,61,30.38,10.0,NE,4.6,-,N/A,,Clear,40,2012-11-15 15:55:00
11:55 AM,45.7,29.7,54,30.36,10.0,North,6.9,-,N/A,,Clear,350,2012-11-15 16:55:00
12:55 PM,46.8,28.4,49,30.35,10.0,NNW,5.8,-,N/A,,Mostly Cloudy,340,2012-11-15 17:55:00
1:55 PM,48.4,28.6,46,30.32,10.0,NNE,5.8,-,N/A,,Mostly Cloudy,30,2012-11-15 18:55:00
2:55 PM,49.6,29.3,46,30.32,10.0,NW,5.8,-,N/A,,Clear,320,2012-11-15 19:55:00
3:55 PM,49.3,27.9,44,30.32,10.0,NNE,4.6,-,N/A,,Overcast,30,2012-11-15 20:55:00
4:55 PM,47.7,27.1,45,30.32,10.0,North,4.6,-,N/A,,Overcast,360,2012-11-15 21:55:00
5:55 PM,44.4,27.5,52,30.32,10.0,North,3.5,-,N/A,,Overcast,360,2012-11-15 22:55:00
6:55 PM,39.9,29.7,67,30.33,10.0,North,3.5,-,N/A,,Overcast,360,2012-11-15 23:55:00
7:55 PM,36.5,28.9,74,30.34,10.0,NW,3.5,-,N/A,,Overcast,320,2012-11-16 00:55:00
8:55 PM,36.7,27.7,70,30.35,10.0,North,4.6,-,N/A,,Mostly Cloudy,350,2012-11-16 01:55:00
9:55 PM,37.4,28.0,69,30.35,10.0,North,5.8,-,N/A,,Mostly Cloudy,360,2012-11-16 02:55:00
10:55 PM,36.0,27.7,72,30.36,10.0,North,4.6,-,N/A,,Mostly Cloudy,10,2012-11-16 03:55:00
11:55 PM,36.9,29.1,74,30.36,10.0,Variable,6.9,-,N/A,,Mostly Cloudy,0,2012-11-16 04:55:00